Location: Eastlake (historical)
(39.0077°N, 122.6678°W)
Time: 14:36:22
(UTC+00:00)

Nadezhda 1 Rocket - Visible Passes

Search period start: 20 April 2021 00:00
Search period end: 30 April 2021 00:00
Orbit: 942 x 1005 km, 83.0° (Epoch: 19 April)

Date Brightness Start Highest point End Pass type
(mag) Time Alt. Az. Time Alt. Az. Time Alt. Az.
20 Apr 6.0 07:34:24 20° NE 07:34:24 20° NE 07:36:51 10° NNE visible
20 Apr 5.3 09:19:00 34° NNW 09:19:00 34° NNW 09:22:53 10° N visible
21 Apr 5.5 07:58:54 30° NE 07:58:54 30° NE 08:02:17 10° NNE visible
21 Apr 5.6 09:43:30 23° NW 09:43:30 23° NW 09:47:02 10° NNW visible
22 Apr 5.1 08:23:24 40° NNE 08:23:24 40° NNE 08:27:17 10° N visible
22 Apr 6.1 10:08:00 14° NW 10:08:00 14° NW 10:10:22 10° NW visible
23 Apr 6.0 07:03:16 17° NE 07:03:16 17° NE 07:05:25 10° NE visible
23 Apr 5.1 08:47:53 38° NNW 08:47:53 38° NNW 08:51:56 10° N visible
24 Apr 5.5 07:27:45 28° NE 07:27:45 28° NE 07:31:04 10° NNE visible
24 Apr 5.5 09:12:21 28° NW 09:12:21 28° NW 09:16:13 10° NNW visible
25 Apr 5.1 07:52:12 40° NNE 07:52:12 40° NNE 07:56:11 10° NNE visible
25 Apr 6.0 09:36:48 17° WNW 09:36:48 17° WNW 09:39:56 10° NNW visible
26 Apr 6.1 06:32:03 15° ENE 06:32:03 15° ENE 06:33:49 10° NE visible
26 Apr 5.0 08:16:39 44° NNW 08:16:39 44° NNW 08:20:56 10° N visible
27 Apr 5.6 06:56:29 25° NE 06:56:29 25° NE 06:59:47 10° NNE visible
27 Apr 5.3 08:41:06 33° NW 08:41:06 33° NW 08:45:22 10° N visible
28 Apr 5.0 07:20:55 39° NE 07:20:55 39° NE 07:25:03 10° NNE visible
28 Apr 5.8 09:05:31 21° WNW 09:05:31 21° WNW 09:09:18 10° NNW visible
29 Apr 6.1 06:00:44 12° ENE 06:00:44 12° ENE 06:01:59 10° NE visible
29 Apr 4.7 07:45:20 50° N 07:45:20 50° N 07:49:54 10° N visible
29 Apr 6.3 09:29:56 12° WNW 09:29:56 12° WNW 09:31:54 10° NW visible
